Flag for U.S.A. Weather past 2 weeks in Chico, California, U.S.A.

50 °F

Partly sunny.

Feels Like: 46 °F
Forecast: 34 / 50 °F
Wind: 12 mph from Northwest

Location: Chico Municipal

Current Time: Nov 25, 2015 at 2:21:47 PM

Latest Report: Nov 25, 2015 at 12:50 PM

Visibility: 40 mi

Pressure: 29.93 "Hg

Humidity: 43%

Dew point: 28 °F

Location of ChicoLocation

Historic Weather in Chico — Graph


Chico temperature yesterday

Maximum temperature yesterday: 55 °F (at 11:47 AM)
Minimum temperature yesterday: 39 °F (at 11:15 PM)
Average temperature yesterday: 49 °F

Past Weeks' High & Low Weather Summary

High73 °F (Nov 20, 1:58 PM)100% (Nov 15, 8:53 AM)30.45 "Hg (Nov 15, 8:53 AM)
Low25 °F (Nov 16, 7:55 AM)29% (Nov 16, 2:47 PM)29.68 "Hg (Nov 15, 6:53 AM)
Average52 °F68%30.03 "Hg
* Reported Nov 10 12:50 PM — Nov 25 12:50 PM, Chico, Weather by CustomWeather, © 2015

Note: Actual official high and low records may vary slightly from our data, if they occured in-between our weather recording intervals... More about our weather records


Chico weather history for previous 24 hours

Time TempWeatherWind HumidityBarometerVisibility
12:50 PM
Wed, Nov 25
50 °FPartly sunny.12 mph43%29.93 "Hg40 mi
11:50 AM48 °FPartly sunny.9 mph54%29.94 "Hg40 mi
10:50 AM43 °FPartly sunny.6 mph81%29.96 "Hg40 mi
9:55 AM37 °FBroken clouds.No wind93%29.97 "Hg40 mi
8:47 AM37 °FScattered clouds.6 mph87%29.97 "Hg40 mi
7:52 AM36 °FBroken clouds.7 mph87%29.94 "Hg40 mi
6:55 AM34 °FPartly cloudy.7 mph93%29.92 "Hg40 mi
5:35 AM34 °FMostly cloudy.No wind93%29.91 "Hg10 mi
5:15 AM37 °FOvercast.No wind81%29.91 "Hg10 mi
4:55 AM37 °FOvercast.No wind81%29.91 "Hg10 mi
4:35 AM36 °FOvercast.No wind87%29.91 "Hg10 mi
4:15 AM37 °FPassing clouds.No wind81%29.91 "Hg10 mi
3:55 AM36 °FPassing clouds.No wind87%29.92 "Hg10 mi
3:35 AM36 °FPassing clouds.No wind87%29.92 "Hg10 mi
3:15 AM36 °FClear.No wind87%29.92 "Hg10 mi
2:55 AM32 °FClear.No wind100%29.92 "Hg10 mi
2:35 AM37 °FClear.No wind81%29.91 "Hg10 mi
2:15 AM36 °FClear.No wind87%29.91 "Hg10 mi
1:55 AM36 °FClear.No wind87%29.91 "Hg10 mi
1:35 AM36 °FClear.No wind87%29.90 "Hg10 mi
1:15 AM37 °FClear.No wind81%29.90 "Hg10 mi
12:55 AM37 °FPassing clouds.No wind81%29.90 "Hg10 mi
12:35 AM39 °FPassing clouds.No wind75%29.90 "Hg10 mi
12:15 AM37 °FPassing clouds.No wind81%29.90 "Hg10 mi
11:55 PM
Tue, Nov 24
39 °FPassing clouds.No wind75%29.90 "Hg10 mi
11:15 PM39 °FOvercast.No wind81%29.90 "Hg10 mi
10:55 PM41 °FOvercast.No wind76%29.89 "Hg10 mi
10:15 PM41 °FPassing clouds.No wind76%29.88 "Hg10 mi
9:55 PM41 °FPassing clouds.No wind76%29.88 "Hg10 mi
9:15 PM46 °FClear.No wind50%29.86 "Hg10 mi
8:55 PM45 °FPassing clouds.No wind61%29.86 "Hg10 mi
7:55 PM45 °FPassing clouds.7 mph61%29.85 "Hg10 mi
7:35 PM45 °FClear.6 mph61%29.85 "Hg10 mi
7:15 PM46 °FClear.No wind57%29.84 "Hg10 mi
6:55 PM46 °FPassing clouds.No wind62%29.84 "Hg10 mi
6:35 PM46 °FPassing clouds.No wind57%29.83 "Hg10 mi
6:15 PM48 °FOvercast.No wind58%29.83 "Hg10 mi
5:55 PM50 °FOvercast.No wind50%29.83 "Hg10 mi
4:47 PM52 °FPartly cloudy.7 mph47%29.81 "Hg40 mi
2:47 PM55 °FBroken clouds.6 mph41%29.78 "Hg40 mi
Weather by CustomWeather, © 2015

See weather overviewHow to use our weather pages